Hourly Weather Roundup
Issued by NWS Central Illinois

Home | Current Version | Previous Version | Text Only | Print | Product List | Glossary On
Versions: 1 2 3 4 5 6 7 8 9 10 11 12 13 14 15 16 17 18 19 20 21 22 23 24 25 26 27 28 29 30 31 32 33 34 35 36 37 38 39 40 41 42 43 44 45 46 47 48 49 50
000
NZUS43 KILX 040210
HWRILX

AREA WEATHER ROUNDUP
NATIONAL WEATHER SERVICE, LINCOLN IL
900 PM CDT FRI JUL 03 2015


CITY           SKY/WX    TMP DP  RH WIND       PRES   REMARKS
BLOOMINGTON    CLEAR     71  62  73 NE3       29.94R
CHAMPAIGN      CLEAR     65  62  90 CALM      29.92R
DANVILLE       CLEAR     65  63  93 N3        29.89S
DECATUR        CLEAR     67  63  87 CALM      29.92R
EFFINGHAM      CLEAR     71  63  74 CALM      29.92R
FLORA          CLEAR     70  66  87 N5        29.90R
GALESBURG      CLEAR     66  61  85 CALM      29.93S
JACKSONVILLE   CLEAR     71  67  87 N3        29.91S
LACON          CLEAR     65  60  83 CALM      29.92R
LAWRENCEVILLE  PTCLDY    71  69  93 E5        29.89R
LITCHFIELD     CLEAR     68  64  87 CALM      29.91S
$$


CITY           SKY/WX    TMP DP  RH WIND       PRES   REMARKS
LINCOLN        PTCLDY    70  64  81 CALM      29.92R
MACOMB         CLEAR     68  64  85 N5        29.95R
MATTOON        CLEAR     69  65  86 NE3       29.90R
MT CARMEL AP   PTCLDY    73  68  83 CALM      29.89R
OLNEY-NOBLE AP PTCLDY    70  68  94 NE3       29.90R
PARIS          CLEAR     69  65  86 CALM      29.91S
PEORIA         CLEAR     71  61  70 N3        29.92R
PONTIAC        CLEAR     67  62  84 CALM      29.93R
RANTOUL        CLEAR     69  63  81 CALM      29.92R
ROBINSON       CLEAR     70  66  87 NE5       29.90R
SPRINGFIELD    CLEAR     71  65  81 CALM      29.92R
TAYLORVILLE    CLEAR     70  64  83 NE5       29.92R
$$

...REGIONAL REPORTS...


CITY           SKY/WX    TMP DP  RH WIND       PRES   REMARKS
CHICAGO O`HARE MOCLDY    66  52  60 SE5       29.92R
KANKAKEE       LGT RAIN  66  60  81 CALM      29.92S
MOLINE         CLEAR     66  61  84 CALM      29.92S
MOUNT STERLING NOT AVBL
MOUNT VERNON   CLEAR     70  64  83 CALM      29.90R
PITTSFIELD     CLEAR     71  66  84 CALM      29.93R
QUINCY         CLEAR     70  62  76 N6        29.92S
ROCKFORD       CLEAR     69  60  73 W3        29.93S
$$


CITY           SKY/WX    TMP DP  RH WIND       PRES   REMARKS
BURLINGTON     CLEAR     69  62  78 N5        29.93R
CEDAR RAPIDS   CLEAR     69  60  73 NW3       29.93S
DES MOINES     CLEAR     73  58  59 S5        29.94S
KIRKSVILLE     LGT RAIN  67  61  81 CALM      29.95R
OTTUMWA        CLEAR     68  62  81 N3        29.93S
ST LOUIS       PTCLDY    77  65  66 NE6       29.91R
$$


CITY           SKY/WX    TMP DP  RH WIND       PRES   REMARKS
TERRE HAUTE    CLEAR     70  66  87 N3        29.90R
EVANSVILLE     LGT RAIN  74  70  87 NE8       29.89R FOG
INDIANAPOLIS   CLOUDY    70  61  73 NE9       29.88S
LAFAYETTE      CLEAR     66  63  90 CALM      29.91R
MADISON        PTCLDY    65  55  70 CALM      29.92S
MILWAUKEE      MOCLDY    63  53  70 SE3       29.92S
$$




USA.gov is the U.S. government's official web portal to all federal, state and local government web resources and services.